This is the latest recevied weather packets stored in our database for station/object DL6JOE-10. If no packets are shown the sender has not sent any weather packets the latest 10 day(s).
| Time | Temp. | Humidity | Pressure | Rain* | Wind** | Luminosity | Snow |
|---|---|---|---|---|---|---|---|
| 1777645266 | 27.78° C | 19% | 970 hPa | - | - | - | - |
| 1777644366 | 27.78° C | 19% | 970 hPa | - | - | - | - |
| 1777643466 | 27.78° C | 19% | 970.3 hPa | - | - | - | - |
| 1777642566 | 27.78° C | 19% | 970.3 hPa | - | - | - | - |
| 1777641666 | 28.33° C | 19% | 970.6 hPa | - | - | - | - |
| 1777640766 | 27.78° C | 20% | 970.5 hPa | - | - | - | - |
| 1777639866 | 27.78° C | 20% | 970.7 hPa | - | - | - | - |
| 1777638966 | 27.22° C | 20% | 970.8 hPa | - | - | - | - |
| 1777638066 | 27.22° C | 20% | 971 hPa | - | - | - | - |
| 1777637165 | 26.67° C | 20% | 971.1 hPa | - | - | - | - |
| 1777636265 | 26.11° C | 21% | 971.2 hPa | - | - | - | - |
| 1777635365 | 25.56° C | 21% | 971.3 hPa | - | - | - | - |
| 1777634465 | 25° C | 21% | 971.5 hPa | - | - | - | - |
| 1777633565 | 23.89° C | 22% | 971.7 hPa | - | - | - | - |
| 1777632665 | 23.89° C | 22% | 971.9 hPa | - | - | - | - |
| 1777631765 | 23.33° C | 22% | 972 hPa | - | - | - | - |
| 1777630865 | 22.22° C | 23% | 972.2 hPa | - | - | - | - |
| 1777629965 | 22.22° C | 23% | 972.3 hPa | - | - | - | - |
| 1777629065 | 21.67° C | 23% | 972.3 hPa | - | - | - | - |
| 1777628165 | 20.56° C | 24% | 972.5 hPa | - | - | - | - |
| 1777627264 | 20° C | 25% | 972.6 hPa | - | - | - | - |
| 1777626364 | 19.44° C | 25% | 972.7 hPa | - | - | - | - |
| 1777625464 | 18.33° C | 26% | 972.7 hPa | - | - | - | - |
| 1777624564 | 17.78° C | 28% | 972.9 hPa | - | - | - | - |
| 1777623664 | 16.11° C | 31% | 972.9 hPa | - | - | - | - |
* Rain since midnight (hover to see other rain measurements)
** Current wind speed in m/s (hover to see current wind gust speed)